Regional Weather Roundup
Issued by NWS

Home | Current Version | Previous Version | Text Only | Print | Product List | Glossary On
Versions: 1 2 3 4 5 6 7 8 9 10 11 12 13 14 15 16 17 18 19 20 21 22 23 24 25 26 27 28 29 30 31 32 33 34 35 36 37 38 39 40 41 42 43 44 45 46 47 48 49 50
000
ASUS45 KBOU 042007
RWRCO

WEATHER ROUNDUP FOR COLORADO
NATIONAL WEATHER SERVICE DENVER/BOULDER CO
200 PM MDT FRI SEP 04 2015

NOTE: "FAIR" INDICATES FEW OR NO CLOUDS BELOW 12000 FEET WITH NO
SIGNIFICANT WEATHER AND/OR OBSTRUCTIONS TO VISIBILITY.

COZ001>005-013-030-031-042100-
...NORTHWEST COLORADO...

CITY           SKY/WX    TMP DP  RH WIND       PRES   REMARKS
CRAIG          PTSUNNY   77  43  29 CALM      30.06F
HAYDEN         PTSUNNY   68  45  42 E24       30.10F
MEEKER         PTSUNNY   73  46  38 SE9G21    30.09F
MOUNT WERNER   NOT AVBL
STEAMBOAT SPGS PTSUNNY   62  49  63 NE13      30.15F
WALDEN         PTSUNNY   59  43  55 SW14      30.23S
$$

COZ006>008-011-042100-
...WEST CENTRAL VALLEYS...

CITY           SKY/WX    TMP DP  RH WIND       PRES   REMARKS
GRAND JUNCTION CLOUDY    75  48  38 SE12      30.01F
MONTROSE       CLOUDY    70  54  56 S8        30.12R
EAGLE          NOT AVBL
RIFLE          CLOUDY    72  53  51 NE6       30.06F
DELTA          CLOUDY    78  49  35 NE7       30.06F
NUCLA          CLOUDY    73  46  38 CALM      30.12F
$$

COZ017>023-064>068-042100-
...SOUTHWEST COLORADO...

CITY           SKY/WX    TMP DP  RH WIND       PRES   REMARKS
DURANGO        CLOUDY    68  47  46 SE6       30.17F
CORTEZ         LGT RAIN  68  56  65 SW5G18    30.10S
PAGOSA SPRINGS CLOUDY    63  47  54 CALM      30.26F
TELLURIDE      CLOUDY    57  48  71 CALM      30.31F
WOLF CREEK PAS NOT AVBL
$$

COZ009-010-012-014-032>034-037-058>063-042100-
...CENTRAL COLORADO...

CITY           SKY/WX    TMP DP  RH WIND       PRES   REMARKS
ASPEN          LGT RAIN  59  52  77 VRB5      30.22S
BUENA VISTA    CLOUDY    66  44  45 CALM      30.21F
COPPER MTN     CLOUDY    50  37  62 W12       30.49F
BERTHOUD PASS  PTSUNNY   46  34  61 MISG      30.54F
COTTONWOOD PAS LGT RAIN  59  43  55 SE12G20   30.35S
GUNNISON       CLOUDY    57  52  82 NE5       30.26F
KREMMLING      DRIZZLE   55  48  76 E7        30.24R
LEADVILLE      LGT RAIN  53  40  61 S5        30.34S
MONARCH PASS   CLOUDY    45  37  76 SW9       30.59S
SALIDA         CLOUDY    72  39  30 S10G21    30.26S
SUNLIGHT       CLOUDY    54  46  76 CALM      30.43S
WILKERSON PASS LGT RAIN  50  43  76 SW6       30.48S
$$

COZ069>075-042100-
...SAN LUIS VALLEY/SANGRE DE CRISTO MOUNTAINS...

CITY           SKY/WX    TMP DP  RH WIND       PRES   REMARKS
ALAMOSA        PTSUNNY   71  45  39 VRB7      30.19F
LA VETA PASS   CLOUDY    64  41  42 S6        30.39F
SAGUACHE       CLOUDY    68  45  42 S3        30.23F
$$

COZ035-036-038>040-042100-
...NORTHERN COLORADO FRONT RANGE...

CITY           SKY/WX    TMP DP  RH WIND       PRES   REMARKS
DENVER INTL AP PTSUNNY   86  39  19 SE13G26   29.99F
DMNS CITY PARK   N/A     87  40  19 SE10G16   29.98F
AURORA         PTSUNNY   84  42  22 E10G17    30.01F
FRONT RANGE AP PTSUNNY   86  36  16 SE10G23   30.01F
ERIE MUNI ARPT PTSUNNY   87  33  14 SE14G21   29.97F
BOULDER MUN AP PTSUNNY   86  37  17 SE7       29.98F
CENTENNIAL     CLOUDY    81  44  27 S12G21    30.02F
BROOMFIELD     PTSUNNY   86  39  19 S7G16     30.02F
FORT COLLINS   MOSUNNY   88  48  25 S13       29.96F
LONGMONT       MOSUNNY   88  36  15 S8        29.98F
$$

COZ041-046-047-076>085-087-088-042100-
...PIKES PEAK/PALMER DIVIDE AND SOUTHERN FOOTHILLS...

CITY           SKY/WX    TMP DP  RH WIND       PRES   REMARKS
COLO. SPRINGS  CLOUDY    81  43  26 S10       30.08F
A. F. ACADEMY  CLOUDY    80  41  25 S7        30.09F
ELLICOTT       CLOUDY   N/A N/A N/A S6        30.07F
FALCON         CLOUDY    79  43  27 S10       30.14F
FORT CARSON    CLOUDY    82  46  28 S10       30.05F
LIMON          MOSUNNY   86  41  20 S10       30.02F
MONUMENT HILL  CLOUDY    75  36  23 S9        30.14S
TRINIDAD       CLOUDY    88  43  20 S15G24    30.04F
$$

COZ042>045-048>051-090-091-042100-
...NORTHEAST COLORADO...

CITY           SKY/WX    TMP DP  RH WIND       PRES   REMARKS
GREELEY ARPT   SUNNY     90  45  20 SE12      29.96F
AKRON          SUNNY     89  37  16 CALM      29.96F
BURLINGTON     SUNNY     91  43  18 VRB5      29.94F
WRAY           CLOUDY    96  41  15 SW6       29.90F
STERLING       SUNNY     91  52  25 S9        29.90F
HOLYOKE        MOSUNNY   95  54  24 S10       29.90S
FORT MORGAN    SUNNY     89  40  18 S6        29.96F
$$

COZ086-089-092>099-042100-
...SOUTHEAST COLORADO...

CITY           SKY/WX    TMP DP  RH WIND       PRES   REMARKS
PUEBLO         CLOUDY    87  46  24 SE6       29.96F
LA JUNTA       MOSUNNY   93  48  21 S9G18     29.92F
LAMAR          SUNNY     94  50  22 VRB5      29.89F
SPRINGFIELD      N/A     93  45  19 S12G23    29.95F
$$



USA.gov is the U.S. government's official web portal to all federal, state and local government web resources and services.